Year,Month,Day,Hour,Minute,Value (Times are PST for temperature in C)
2016,04,18,00,00,10.80
2016,04,18,00,01,10.80
2016,04,18,00,02,10.80
2016,04,18,00,03,10.80
2016,04,18,00,04,10.80
2016,04,18,00,05,10.80
2016,04,18,00,06,10.70
2016,04,18,00,07,10.70
2016,04,18,00,08,10.70
2016,04,18,00,09,10.70
2016,04,18,00,10,10.70
2016,04,18,00,11,10.60
2016,04,18,00,12,10.60
2016,04,18,00,13,10.60
2016,04,18,00,14,10.60
2016,04,18,00,15,10.60
2016,04,18,00,16,10.60
2016,04,18,00,17,10.70
2016,04,18,00,18,10.70
2016,04,18,00,19,10.70
2016,04,18,00,20,10.70
2016,04,18,00,21,10.70
2016,04,18,00,22,10.60
2016,04,18,00,23,10.60
2016,04,18,00,24,10.60
2016,04,18,00,25,10.60
2016,04,18,00,26,10.60
2016,04,18,00,27,10.60
2016,04,18,00,28,10.60
2016,04,18,00,29,10.60
2016,04,18,00,30,10.60
2016,04,18,00,31,10.60
2016,04,18,00,32,10.60
2016,04,18,00,33,10.60
2016,04,18,00,34,10.50
2016,04,18,00,35,10.50
2016,04,18,00,36,10.50
2016,04,18,00,37,10.40
2016,04,18,00,38,10.40
2016,04,18,00,39,10.40
2016,04,18,00,40,10.40
2016,04,18,00,41,10.40
2016,04,18,00,42,10.30
2016,04,18,00,43,10.30
2016,04,18,00,44,10.30
2016,04,18,00,45,10.30
2016,04,18,00,46,10.30
2016,04,18,00,47,10.30
2016,04,18,00,48,10.30
2016,04,18,00,49,10.30
2016,04,18,00,50,10.30
2016,04,18,00,51,10.30
2016,04,18,00,52,10.30
2016,04,18,00,53,10.30
2016,04,18,00,54,10.30
2016,04,18,00,55,10.30
2016,04,18,00,56,10.30
2016,04,18,00,57,10.30
2016,04,18,00,58,10.50
2016,04,18,00,59,10.70
2016,04,18,01,00,11.00
2016,04,18,01,01,11.10
2016,04,18,01,02,11.20
2016,04,18,01,03,11.20
2016,04,18,01,04,11.50
2016,04,18,01,05,11.60
2016,04,18,01,06,11.70
2016,04,18,01,07,11.70
2016,04,18,01,08,11.80
2016,04,18,01,09,11.80
2016,04,18,01,10,11.80
2016,04,18,01,11,11.80
2016,04,18,01,12,11.90
2016,04,18,01,13,12.00
2016,04,18,01,14,12.10
2016,04,18,01,15,12.20
2016,04,18,01,16,12.30
2016,04,18,01,17,12.30
2016,04,18,01,18,12.20
2016,04,18,01,19,12.20
2016,04,18,01,20,12.20
2016,04,18,01,21,12.30
2016,04,18,01,22,12.50
2016,04,18,01,23,12.80
2016,04,18,01,24,13.00
2016,04,18,01,25,13.20
2016,04,18,01,26,13.30
2016,04,18,01,27,13.30
2016,04,18,01,28,13.30
2016,04,18,01,29,13.30
2016,04,18,01,30,13.40
2016,04,18,01,31,13.40
2016,04,18,01,32,13.40
2016,04,18,01,33,13.30
2016,04,18,01,34,13.30
2016,04,18,01,35,13.30
2016,04,18,01,36,13.30
2016,04,18,01,37,13.40
2016,04,18,01,38,13.60
2016,04,18,01,39,13.70
2016,04,18,01,40,14.00
2016,04,18,01,41,14.20
2016,04,18,01,42,14.30
2016,04,18,01,43,14.40
2016,04,18,01,44,14.50
2016,04,18,01,45,14.50
2016,04,18,01,46,14.50
2016,04,18,01,47,14.50
2016,04,18,01,48,14.50
2016,04,18,01,49,14.60
2016,04,18,01,50,14.60
2016,04,18,01,51,14.60
2016,04,18,01,52,14.60
2016,04,18,01,53,14.60
2016,04,18,01,54,14.60
2016,04,18,01,55,14.60
2016,04,18,01,56,14.60
2016,04,18,01,57,14.70
2016,04,18,01,58,14.70
2016,04,18,01,59,14.80
2016,04,18,02,00,14.80
2016,04,18,02,01,14.70
2016,04,18,02,02,14.50
2016,04,18,02,03,14.30
2016,04,18,02,04,14.20
2016,04,18,02,05,14.10
2016,04,18,02,06,14.10
2016,04,18,02,07,14.10
2016,04,18,02,08,14.10
2016,04,18,02,09,14.00
2016,04,18,02,10,14.00
2016,04,18,02,11,14.00
2016,04,18,02,12,14.10
2016,04,18,02,13,14.20
2016,04,18,02,14,14.30
2016,04,18,02,15,14.30
2016,04,18,02,16,14.40
2016,04,18,02,17,14.50
2016,04,18,02,18,14.50
2016,04,18,02,19,14.60
2016,04,18,02,20,14.70
2016,04,18,02,21,14.70
2016,04,18,02,22,14.70
2016,04,18,02,23,14.80
2016,04,18,02,24,14.90
2016,04,18,02,25,15.00
2016,04,18,02,26,15.10
2016,04,18,02,27,15.20
2016,04,18,02,28,15.20
2016,04,18,02,29,15.30
2016,04,18,02,30,15.30
2016,04,18,02,31,15.30
2016,04,18,02,32,15.30
2016,04,18,02,33,15.30
2016,04,18,02,34,15.30
2016,04,18,02,35,15.30
2016,04,18,02,36,15.30
2016,04,18,02,37,15.40
2016,04,18,02,38,15.40
2016,04,18,02,39,15.40
2016,04,18,02,40,15.40
2016,04,18,02,41,15.40
2016,04,18,02,42,15.40
2016,04,18,02,43,15.50
2016,04,18,02,44,15.50
2016,04,18,02,45,15.60
2016,04,18,02,46,15.70
2016,04,18,02,47,15.60
2016,04,18,02,48,15.50
2016,04,18,02,49,15.50
2016,04,18,02,50,15.40
2016,04,18,02,51,15.30
2016,04,18,02,52,15.30
2016,04,18,02,53,15.20
2016,04,18,02,54,15.10
2016,04,18,02,55,15.10
2016,04,18,02,56,15.00
2016,04,18,02,57,14.90
2016,04,18,02,58,14.80
2016,04,18,02,59,14.80
2016,04,18,03,00,14.70
2016,04,18,03,01,14.70
2016,04,18,03,02,14.80
2016,04,18,03,03,14.80
2016,04,18,03,04,14.80
2016,04,18,03,05,14.80
2016,04,18,03,06,14.80
2016,04,18,03,07,14.90
2016,04,18,03,08,14.90
2016,04,18,03,09,14.90
2016,04,18,03,10,15.00
2016,04,18,03,11,15.00
2016,04,18,03,12,14.90
2016,04,18,03,13,14.90
2016,04,18,03,14,14.90
2016,04,18,03,15,14.80
2016,04,18,03,16,14.70
2016,04,18,03,17,14.60
2016,04,18,03,18,14.50
2016,04,18,03,19,14.40
2016,04,18,03,20,14.50
2016,04,18,03,21,14.60
2016,04,18,03,22,14.60
2016,04,18,03,23,14.60
2016,04,18,03,24,14.60
2016,04,18,03,25,14.70
2016,04,18,03,26,14.80
2016,04,18,03,27,14.80
2016,04,18,03,28,14.90
2016,04,18,03,29,14.90
2016,04,18,03,30,14.90
2016,04,18,03,31,14.80
2016,04,18,03,32,14.70
2016,04,18,03,33,14.70
2016,04,18,03,34,14.50
2016,04,18,03,35,14.50
2016,04,18,03,36,14.40
2016,04,18,03,37,14.40
2016,04,18,03,38,14.30
2016,04,18,03,39,14.30
2016,04,18,03,40,14.30
2016,04,18,03,41,14.20
2016,04,18,03,42,14.20
2016,04,18,03,43,14.20
2016,04,18,03,44,14.20
2016,04,18,03,45,14.20
2016,04,18,03,46,14.20
2016,04,18,03,47,14.20
2016,04,18,03,48,14.20
2016,04,18,03,49,14.20
2016,04,18,03,50,14.20
2016,04,18,03,51,14.20
2016,04,18,03,52,14.20
2016,04,18,03,53,14.20
2016,04,18,03,54,14.20
2016,04,18,03,55,14.10
2016,04,18,03,56,14.10
2016,04,18,03,57,14.10
2016,04,18,03,58,14.10
2016,04,18,03,59,14.10
2016,04,18,04,00,14.10
2016,04,18,04,01,14.10
2016,04,18,04,02,14.10
2016,04,18,04,03,14.10
2016,04,18,04,04,14.10
2016,04,18,04,05,14.20
2016,04,18,04,06,14.20
2016,04,18,04,07,14.30
2016,04,18,04,08,14.30
2016,04,18,04,09,14.30
2016,04,18,04,10,14.40
2016,04,18,04,11,14.40
2016,04,18,04,12,14.50
2016,04,18,04,13,14.50
2016,04,18,04,14,14.60
2016,04,18,04,15,14.70
2016,04,18,04,16,14.70
2016,04,18,04,17,14.70
2016,04,18,04,18,14.80
2016,04,18,04,19,14.80
2016,04,18,04,20,14.90
2016,04,18,04,21,14.90
2016,04,18,04,22,15.00
2016,04,18,04,23,15.10
2016,04,18,04,24,15.10
2016,04,18,04,25,15.20
2016,04,18,04,26,15.20
2016,04,18,04,27,15.30
2016,04,18,04,28,15.40
2016,04,18,04,29,15.50
2016,04,18,04,30,15.60
2016,04,18,04,31,15.60
2016,04,18,04,32,15.70
2016,04,18,04,33,15.70
2016,04,18,04,34,15.50
2016,04,18,04,35,15.30
2016,04,18,04,36,15.10
2016,04,18,04,37,14.90
2016,04,18,04,38,14.60
2016,04,18,04,39,14.40
2016,04,18,04,40,14.00
2016,04,18,04,41,13.70
2016,04,18,04,42,13.40
2016,04,18,04,43,13.10
2016,04,18,04,44,12.90
2016,04,18,04,45,12.70
2016,04,18,04,46,12.60
2016,04,18,04,47,12.40
2016,04,18,04,48,12.30
2016,04,18,04,49,12.10
2016,04,18,04,50,12.00
2016,04,18,04,51,11.90
2016,04,18,04,52,11.80
2016,04,18,04,53,11.80
2016,04,18,04,54,11.70
2016,04,18,04,55,11.70
2016,04,18,04,56,11.60
2016,04,18,04,57,11.60
2016,04,18,04,58,11.60
2016,04,18,04,59,11.50
2016,04,18,05,00,11.50
2016,04,18,05,01,11.50
2016,04,18,05,02,11.50
2016,04,18,05,03,11.50
2016,04,18,05,04,11.50
2016,04,18,05,05,11.50
2016,04,18,05,06,11.50
2016,04,18,05,07,11.50
2016,04,18,05,08,11.60
2016,04,18,05,09,11.60
2016,04,18,05,10,11.60
2016,04,18,05,11,11.60
2016,04,18,05,12,11.60
2016,04,18,05,13,11.60
2016,04,18,05,14,11.60
2016,04,18,05,15,11.60
2016,04,18,05,16,11.60
2016,04,18,05,17,11.60
2016,04,18,05,18,11.60
2016,04,18,05,19,11.60
2016,04,18,05,20,11.70
2016,04,18,05,21,11.70
2016,04,18,05,22,11.70
2016,04,18,05,23,11.70
2016,04,18,05,24,11.70
2016,04,18,05,25,11.70
2016,04,18,05,26,11.70
2016,04,18,05,27,11.70
2016,04,18,05,28,11.70
2016,04,18,05,29,11.70
2016,04,18,05,30,11.70
2016,04,18,05,31,11.70
2016,04,18,05,32,11.70
2016,04,18,05,33,11.70
2016,04,18,05,34,11.70
2016,04,18,05,35,11.70
2016,04,18,05,36,11.70
2016,04,18,05,37,11.70
2016,04,18,05,38,11.70
2016,04,18,05,39,11.70
2016,04,18,05,40,11.70
2016,04,18,05,41,11.70
2016,04,18,05,42,11.70
2016,04,18,05,43,11.70
2016,04,18,05,44,11.70
2016,04,18,05,45,11.70
2016,04,18,05,46,11.70
2016,04,18,05,47,11.70
2016,04,18,05,48,11.70
2016,04,18,05,49,11.70
2016,04,18,05,50,11.60
2016,04,18,05,51,11.60
2016,04,18,05,52,11.60
2016,04,18,05,53,11.50
2016,04,18,05,54,11.40
2016,04,18,05,55,11.40
2016,04,18,05,56,11.30
2016,04,18,05,57,11.30
2016,04,18,05,58,11.20
2016,04,18,05,59,11.20
2016,04,18,06,00,11.20
2016,04,18,06,01,11.20
2016,04,18,06,02,11.10
2016,04,18,06,03,11.10
2016,04,18,06,04,11.10
2016,04,18,06,05,11.10
2016,04,18,06,06,11.10
2016,04,18,06,07,11.00
2016,04,18,06,08,11.00
2016,04,18,06,09,11.00
2016,04,18,06,10,11.00
2016,04,18,06,11,10.90
2016,04,18,06,12,10.90
2016,04,18,06,13,10.90
2016,04,18,06,14,10.90
2016,04,18,06,15,10.90
2016,04,18,06,16,10.90
2016,04,18,06,17,10.90
2016,04,18,06,18,10.90
2016,04,18,06,19,10.90
2016,04,18,06,20,10.90
2016,04,18,06,21,10.90
2016,04,18,06,22,10.90
2016,04,18,06,23,10.80
2016,04,18,06,24,10.90
2016,04,18,06,25,10.80
2016,04,18,06,26,10.80
2016,04,18,06,27,10.90
2016,04,18,06,28,10.90
2016,04,18,06,29,10.90
2016,04,18,06,30,10.90
2016,04,18,06,31,10.90
2016,04,18,06,32,10.90
2016,04,18,06,33,10.90
2016,04,18,06,34,10.90
2016,04,18,06,35,10.90
2016,04,18,06,36,10.90
2016,04,18,06,37,10.90
2016,04,18,06,38,11.00
2016,04,18,06,39,11.00
2016,04,18,06,40,11.00
2016,04,18,06,41,11.00
2016,04,18,06,42,11.10
2016,04,18,06,43,11.10
2016,04,18,06,44,11.10
2016,04,18,06,45,11.10
2016,04,18,06,46,11.20
2016,04,18,06,47,11.20
2016,04,18,06,48,11.20
2016,04,18,06,49,11.20
2016,04,18,06,50,11.30
2016,04,18,06,51,11.30
2016,04,18,06,52,11.30
2016,04,18,06,53,11.30
2016,04,18,06,54,11.40
2016,04,18,06,55,11.40
2016,04,18,06,56,11.40
2016,04,18,06,57,11.40
2016,04,18,06,58,11.40
2016,04,18,06,59,11.40
2016,04,18,07,00,11.40
2016,04,18,07,01,11.40
2016,04,18,07,02,11.50
2016,04,18,07,03,11.50
2016,04,18,07,04,11.40
2016,04,18,07,05,11.40
2016,04,18,07,06,11.40
2016,04,18,07,07,11.40
2016,04,18,07,08,11.30
2016,04,18,07,09,11.30
2016,04,18,07,10,11.30
2016,04,18,07,11,11.30
2016,04,18,07,12,11.30
2016,04,18,07,13,11.30
2016,04,18,07,14,11.40
2016,04,18,07,15,11.40
2016,04,18,07,16,11.40
2016,04,18,07,17,11.40
2016,04,18,07,18,11.40
2016,04,18,07,19,11.40
2016,04,18,07,20,11.50
2016,04,18,07,21,11.50
2016,04,18,07,22,11.50
2016,04,18,07,23,11.60
2016,04,18,07,24,11.60
2016,04,18,07,25,11.60
2016,04,18,07,26,11.70
2016,04,18,07,27,11.70
2016,04,18,07,28,11.70
2016,04,18,07,29,11.80
2016,04,18,07,30,11.80
2016,04,18,07,31,11.80
2016,04,18,07,32,11.90
2016,04,18,07,33,11.90
2016,04,18,07,34,11.90
2016,04,18,07,35,11.90
2016,04,18,07,36,11.90
2016,04,18,07,37,11.90
2016,04,18,07,38,11.90
2016,04,18,07,39,12.00
2016,04,18,07,40,12.00
2016,04,18,07,41,12.00
2016,04,18,07,42,12.00
2016,04,18,07,43,12.10
2016,04,18,07,44,12.10
2016,04,18,07,45,12.10
2016,04,18,07,46,12.10
2016,04,18,07,47,12.10
2016,04,18,07,48,12.10
2016,04,18,07,49,12.20
2016,04,18,07,50,12.20
2016,04,18,07,51,12.30
2016,04,18,07,52,12.30
2016,04,18,07,53,12.40
2016,04,18,07,54,12.40
2016,04,18,07,55,12.50
2016,04,18,07,56,12.50
2016,04,18,07,57,12.50
2016,04,18,07,58,12.60
2016,04,18,07,59,12.60
2016,04,18,08,00,12.50
2016,04,18,08,01,12.50
2016,04,18,08,02,12.50
2016,04,18,08,03,12.50
2016,04,18,08,04,12.50
2016,04,18,08,05,12.60
2016,04,18,08,06,12.60
2016,04,18,08,07,12.60
2016,04,18,08,08,12.70
2016,04,18,08,09,12.80
2016,04,18,08,10,12.90
2016,04,18,08,11,12.90
2016,04,18,08,12,13.00
2016,04,18,08,13,13.10
2016,04,18,08,14,13.10
2016,04,18,08,15,13.20
2016,04,18,08,16,13.30
2016,04,18,08,17,13.30
2016,04,18,08,18,13.40
2016,04,18,08,19,13.50
2016,04,18,08,20,13.60
2016,04,18,08,21,13.70
2016,04,18,08,22,13.80
2016,04,18,08,23,13.90
2016,04,18,08,24,13.90
2016,04,18,08,25,14.00
2016,04,18,08,26,14.00
2016,04,18,08,27,14.10
2016,04,18,08,28,14.20
2016,04,18,08,29,14.30
2016,04,18,08,30,14.40
2016,04,18,08,31,14.50
2016,04,18,08,32,14.50
2016,04,18,08,33,14.60
2016,04,18,08,34,14.70
2016,04,18,08,35,14.80
2016,04,18,08,36,14.90
2016,04,18,08,37,14.90
2016,04,18,08,38,15.00
2016,04,18,08,39,15.10
2016,04,18,08,40,15.20
2016,04,18,08,41,15.20
2016,04,18,08,42,15.20
2016,04,18,08,43,15.30
2016,04,18,08,44,15.30
2016,04,18,08,45,15.40
2016,04,18,08,46,15.40
2016,04,18,08,47,15.50
2016,04,18,08,48,15.60
2016,04,18,08,49,15.60
2016,04,18,08,50,15.70
2016,04,18,08,51,15.80
2016,04,18,08,52,15.80
2016,04,18,08,53,15.90
2016,04,18,08,54,15.90
2016,04,18,08,55,15.90
2016,04,18,08,56,16.00
2016,04,18,08,57,16.00
2016,04,18,08,58,16.00
2016,04,18,08,59,16.00
2016,04,18,09,00,16.10
2016,04,18,09,01,16.10
2016,04,18,09,02,16.20
2016,04,18,09,03,16.30
2016,04,18,09,04,16.30
2016,04,18,09,05,16.30
2016,04,18,09,06,16.30
2016,04,18,09,07,16.30
2016,04,18,09,08,16.30
2016,04,18,09,09,16.30
2016,04,18,09,10,16.30
2016,04,18,09,11,16.40
2016,04,18,09,12,16.50
2016,04,18,09,13,16.60
2016,04,18,09,14,16.60
2016,04,18,09,15,16.70
2016,04,18,09,16,16.70
2016,04,18,09,17,16.70
2016,04,18,09,18,16.80
2016,04,18,09,19,16.90
2016,04,18,09,20,17.00
2016,04,18,09,21,17.10
2016,04,18,09,22,17.20
2016,04,18,09,23,17.30
2016,04,18,09,24,17.40
2016,04,18,09,25,17.50
2016,04,18,09,26,17.70
2016,04,18,09,27,17.80
2016,04,18,09,28,17.80
2016,04,18,09,29,17.80
2016,04,18,09,30,17.90
2016,04,18,09,31,18.00
2016,04,18,09,32,18.00
2016,04,18,09,33,18.10
2016,04,18,09,34,18.10
2016,04,18,09,35,18.20
2016,04,18,09,36,18.20
2016,04,18,09,37,18.20
2016,04,18,09,38,18.30
2016,04,18,09,39,18.20
2016,04,18,09,40,18.20
2016,04,18,09,41,18.20
2016,04,18,09,42,18.10
2016,04,18,09,43,18.10
2016,04,18,09,44,18.00
2016,04,18,09,45,17.90
2016,04,18,09,46,17.90
2016,04,18,09,47,17.80
2016,04,18,09,48,17.80
2016,04,18,09,49,17.80
2016,04,18,09,50,17.80
2016,04,18,09,51,17.90
2016,04,18,09,52,18.00
2016,04,18,09,53,18.00
2016,04,18,09,54,18.10
2016,04,18,09,55,18.20
2016,04,18,09,56,18.30
2016,04,18,09,57,18.40
2016,04,18,09,58,18.40
2016,04,18,09,59,18.50
2016,04,18,10,00,18.60
2016,04,18,10,01,18.60
2016,04,18,10,02,18.60
2016,04,18,10,03,18.70
2016,04,18,10,04,18.70
2016,04,18,10,05,18.80
2016,04,18,10,06,18.80
2016,04,18,10,07,18.80
2016,04,18,10,08,18.70
2016,04,18,10,09,18.70
2016,04,18,10,10,18.70
2016,04,18,10,11,18.60
2016,04,18,10,12,18.60
2016,04,18,10,13,18.60
2016,04,18,10,14,18.70
2016,04,18,10,15,18.70
2016,04,18,10,16,18.70
2016,04,18,10,17,18.80
2016,04,18,10,18,18.80
2016,04,18,10,19,18.80
2016,04,18,10,20,18.80
2016,04,18,10,21,18.80
2016,04,18,10,22,18.80
2016,04,18,10,23,18.80
2016,04,18,10,24,18.90
2016,04,18,10,25,19.00
2016,04,18,10,26,19.00
2016,04,18,10,27,19.00
2016,04,18,10,28,19.10
2016,04,18,10,29,19.10
2016,04,18,10,30,19.00
2016,04,18,10,31,18.90
2016,04,18,10,32,18.90
2016,04,18,10,33,18.80
2016,04,18,10,34,18.80
2016,04,18,10,35,18.90
2016,04,18,10,36,19.00
2016,04,18,10,37,19.10
2016,04,18,10,38,19.20
2016,04,18,10,39,19.40
2016,04,18,10,40,19.50
2016,04,18,10,41,19.60
2016,04,18,10,42,19.70
2016,04,18,10,43,19.80
2016,04,18,10,44,19.90
2016,04,18,10,45,19.90
2016,04,18,10,46,20.00
2016,04,18,10,47,19.90
2016,04,18,10,48,19.80
2016,04,18,10,49,19.80
2016,04,18,10,50,19.80
2016,04,18,10,51,19.80
2016,04,18,10,52,19.80
2016,04,18,10,53,19.70
2016,04,18,10,54,19.60
2016,04,18,10,55,19.70
2016,04,18,10,56,19.70
2016,04,18,10,57,19.80
2016,04,18,10,58,19.80
2016,04,18,10,59,19.70
2016,04,18,11,00,19.60
2016,04,18,11,01,19.60
2016,04,18,11,02,19.50
2016,04,18,11,03,19.50
2016,04,18,11,04,19.60
2016,04,18,11,05,19.60
2016,04,18,11,06,19.70
2016,04,18,11,07,19.70
2016,04,18,11,08,19.70
2016,04,18,11,09,19.70
2016,04,18,11,10,19.70
2016,04,18,11,11,19.70
2016,04,18,11,12,19.70
2016,04,18,11,13,19.60
2016,04,18,11,14,19.60
2016,04,18,11,15,19.60
2016,04,18,11,16,19.60
2016,04,18,11,17,19.70
2016,04,18,11,18,19.70
2016,04,18,11,19,19.70
2016,04,18,11,20,19.80
2016,04,18,11,21,19.80
2016,04,18,11,22,19.80
2016,04,18,11,23,19.90
2016,04,18,11,24,20.00
2016,04,18,11,25,20.10
2016,04,18,11,26,20.30
2016,04,18,11,27,20.30
2016,04,18,11,28,20.30
2016,04,18,11,29,20.30
2016,04,18,11,30,20.20
2016,04,18,11,31,20.10
2016,04,18,11,32,20.10
2016,04,18,11,33,20.00
2016,04,18,11,34,20.00
2016,04,18,11,35,20.00
2016,04,18,11,36,19.90
2016,04,18,11,37,19.90
2016,04,18,11,38,19.80
2016,04,18,11,39,19.70
2016,04,18,11,40,19.50
2016,04,18,11,41,19.50
2016,04,18,11,42,19.40
2016,04,18,11,43,19.30
2016,04,18,11,44,19.30
2016,04,18,11,45,19.20
2016,04,18,11,46,19.10
2016,04,18,11,47,19.10
2016,04,18,11,48,19.00
2016,04,18,11,49,18.90
2016,04,18,11,50,18.90
2016,04,18,11,51,18.90
2016,04,18,11,52,18.90
2016,04,18,11,53,18.90
2016,04,18,11,54,18.90
2016,04,18,11,55,18.90
2016,04,18,11,56,19.00
2016,04,18,11,57,19.00
2016,04,18,11,58,19.10
2016,04,18,11,59,19.10
2016,04,18,12,00,19.00
2016,04,18,12,01,19.00
2016,04,18,12,02,18.90
2016,04,18,12,03,18.90
2016,04,18,12,04,18.80
2016,04,18,12,05,18.80
2016,04,18,12,06,18.80
2016,04,18,12,07,18.80
2016,04,18,12,08,18.70
2016,04,18,12,09,18.70
2016,04,18,12,10,18.70
2016,04,18,12,11,18.80
2016,04,18,12,12,18.80
2016,04,18,12,13,18.90
2016,04,18,12,14,18.90
2016,04,18,12,15,18.90
2016,04,18,12,16,18.80
2016,04,18,12,17,18.80
2016,04,18,12,18,18.70
2016,04,18,12,19,18.70
2016,04,18,12,20,18.80
2016,04,18,12,21,18.80
2016,04,18,12,22,18.80
2016,04,18,12,23,18.90
2016,04,18,12,24,18.90
2016,04,18,12,25,18.90
2016,04,18,12,26,18.90
2016,04,18,12,27,18.90
2016,04,18,12,28,19.00
2016,04,18,12,29,19.10
2016,04,18,12,30,19.10
2016,04,18,12,31,19.10
2016,04,18,12,32,19.20
2016,04,18,12,33,19.30
2016,04,18,12,34,19.50
2016,04,18,12,35,19.60
2016,04,18,12,36,19.70
2016,04,18,12,37,19.80
2016,04,18,12,38,19.80
2016,04,18,12,39,19.90
2016,04,18,12,40,20.00
2016,04,18,12,41,20.10
2016,04,18,12,42,20.10
2016,04,18,12,43,20.20
2016,04,18,12,44,20.20
2016,04,18,12,45,20.30
2016,04,18,12,46,20.40
2016,04,18,12,47,20.40
2016,04,18,12,48,20.40
2016,04,18,12,49,20.30
2016,04,18,12,50,20.30
2016,04,18,12,51,20.40
2016,04,18,12,52,20.40
2016,04,18,12,53,20.40
2016,04,18,12,54,20.40
2016,04,18,12,55,20.30
2016,04,18,12,56,20.30
2016,04,18,12,57,20.20
2016,04,18,12,58,20.20
2016,04,18,12,59,20.10
2016,04,18,13,00,20.10
2016,04,18,13,01,20.20
2016,04,18,13,02,20.20
2016,04,18,13,03,20.20
2016,04,18,13,04,20.30
2016,04,18,13,05,20.40
2016,04,18,13,06,20.40
2016,04,18,13,07,20.40
2016,04,18,13,08,20.50
2016,04,18,13,09,20.60
2016,04,18,13,10,20.60
2016,04,18,13,11,20.50
2016,04,18,13,12,20.50
2016,04,18,13,13,20.40
2016,04,18,13,14,20.40
2016,04,18,13,15,20.20
2016,04,18,13,16,20.10
2016,04,18,13,17,20.10
2016,04,18,13,18,20.10
2016,04,18,13,19,20.10
2016,04,18,13,20,20.10
2016,04,18,13,21,20.00
2016,04,18,13,22,20.00
2016,04,18,13,23,19.80
2016,04,18,13,24,19.70
2016,04,18,13,25,19.50
2016,04,18,13,26,19.30
2016,04,18,13,27,19.10
2016,04,18,13,28,18.90
2016,04,18,13,29,18.80
2016,04,18,13,30,18.70
2016,04,18,13,31,18.80
2016,04,18,13,32,18.90
2016,04,18,13,33,19.00
2016,04,18,13,34,19.10
2016,04,18,13,35,19.20
2016,04,18,13,36,19.30
2016,04,18,13,37,19.40
2016,04,18,13,38,19.40
2016,04,18,13,39,19.50
2016,04,18,13,40,19.70
2016,04,18,13,41,19.80
2016,04,18,13,42,20.00
2016,04,18,13,43,20.20
2016,04,18,13,44,20.30
2016,04,18,13,45,20.50
2016,04,18,13,46,20.50
2016,04,18,13,47,20.50
2016,04,18,13,48,20.50
2016,04,18,13,49,20.50
2016,04,18,13,50,20.50
2016,04,18,13,51,20.50
2016,04,18,13,52,20.50
2016,04,18,13,53,20.40
2016,04,18,13,54,20.40
2016,04,18,13,55,20.40
2016,04,18,13,56,20.50
2016,04,18,13,57,20.50
2016,04,18,13,58,20.60
2016,04,18,13,59,20.70
2016,04,18,14,00,20.90
2016,04,18,14,01,21.10
2016,04,18,14,02,21.30
2016,04,18,14,03,21.60
2016,04,18,14,04,21.70
2016,04,18,14,05,21.80
2016,04,18,14,06,21.90
2016,04,18,14,07,22.10
2016,04,18,14,08,22.00
2016,04,18,14,09,21.80
2016,04,18,14,10,21.50
2016,04,18,14,11,21.30
2016,04,18,14,12,21.20
2016,04,18,14,13,21.10
2016,04,18,14,14,21.00
2016,04,18,14,15,21.00
2016,04,18,14,16,21.20
2016,04,18,14,17,21.20
2016,04,18,14,18,21.40
2016,04,18,14,19,21.50
2016,04,18,14,20,21.50
2016,04,18,14,21,21.70
2016,04,18,14,22,21.80
2016,04,18,14,23,22.00
2016,04,18,14,24,22.10
2016,04,18,14,25,22.20
2016,04,18,14,26,22.20
2016,04,18,14,27,22.30
2016,04,18,14,28,22.20
2016,04,18,14,29,22.10
2016,04,18,14,30,22.00
2016,04,18,14,31,21.80
2016,04,18,14,32,21.70
2016,04,18,14,33,21.60
2016,04,18,14,34,21.50
2016,04,18,14,35,21.50
2016,04,18,14,36,21.30
2016,04,18,14,37,21.10
2016,04,18,14,38,21.00
2016,04,18,14,39,21.00
2016,04,18,14,40,21.10
2016,04,18,14,41,21.30
2016,04,18,14,42,21.50
2016,04,18,14,43,21.60
2016,04,18,14,44,21.70
2016,04,18,14,45,21.80
2016,04,18,14,46,21.90
2016,04,18,14,47,22.00
2016,04,18,14,48,22.10
2016,04,18,14,49,22.10
2016,04,18,14,50,22.10
2016,04,18,14,51,22.00
2016,04,18,14,52,21.90
2016,04,18,14,53,21.80
2016,04,18,14,54,21.80
2016,04,18,14,55,21.70
2016,04,18,14,56,21.60
2016,04,18,14,57,21.50
2016,04,18,14,58,21.40
2016,04,18,14,59,21.30
2016,04,18,15,00,21.20
2016,04,18,15,01,21.10
2016,04,18,15,02,21.10
2016,04,18,15,03,21.10
2016,04,18,15,04,21.10
2016,04,18,15,05,21.10
2016,04,18,15,06,21.10
2016,04,18,15,07,21.10
2016,04,18,15,08,21.10
2016,04,18,15,09,21.20
2016,04,18,15,10,21.30
2016,04,18,15,11,21.50
2016,04,18,15,12,21.60
2016,04,18,15,13,21.70
2016,04,18,15,14,21.70
2016,04,18,15,15,21.70
2016,04,18,15,16,21.70
2016,04,18,15,17,21.70
2016,04,18,15,18,21.60
2016,04,18,15,19,21.40
2016,04,18,15,20,21.30
2016,04,18,15,21,21.20
2016,04,18,15,22,21.10
2016,04,18,15,23,21.10
2016,04,18,15,24,21.20
2016,04,18,15,25,21.20
2016,04,18,15,26,21.30
2016,04,18,15,27,21.50
2016,04,18,15,28,21.70
2016,04,18,15,29,21.90
2016,04,18,15,30,22.10
2016,04,18,15,31,22.20
2016,04,18,15,32,22.20
2016,04,18,15,33,22.30
2016,04,18,15,34,22.40
2016,04,18,15,35,22.50
2016,04,18,15,36,22.60
2016,04,18,15,37,22.70
2016,04,18,15,38,22.80
2016,04,18,15,39,22.90
2016,04,18,15,40,22.90
2016,04,18,15,41,22.90
2016,04,18,15,42,23.00
2016,04,18,15,43,23.00
2016,04,18,15,44,22.90
2016,04,18,15,45,22.80
2016,04,18,15,46,22.70
2016,04,18,15,47,22.70
2016,04,18,15,48,22.60
2016,04,18,15,49,22.50
2016,04,18,15,50,22.40
2016,04,18,15,51,22.40
2016,04,18,15,52,22.30
2016,04,18,15,53,22.30
2016,04,18,15,54,22.30
2016,04,18,15,55,22.30
2016,04,18,15,56,22.40
2016,04,18,15,57,22.40
2016,04,18,15,58,22.60
2016,04,18,15,59,22.60
2016,04,18,16,00,22.70
2016,04,18,16,01,22.70
2016,04,18,16,02,22.70
2016,04,18,16,03,22.60
2016,04,18,16,04,22.30
2016,04,18,16,05,22.10
2016,04,18,16,06,21.70
2016,04,18,16,07,21.30
2016,04,18,16,08,21.00
2016,04,18,16,09,20.80
2016,04,18,16,10,20.60
2016,04,18,16,11,20.60
2016,04,18,16,12,20.60
2016,04,18,16,13,20.50
2016,04,18,16,14,20.40
2016,04,18,16,15,20.40
2016,04,18,16,16,20.30
2016,04,18,16,17,20.30
2016,04,18,16,18,20.10
2016,04,18,16,19,20.00
2016,04,18,16,20,19.90
2016,04,18,16,21,19.90
2016,04,18,16,22,19.80
2016,04,18,16,23,19.80
2016,04,18,16,24,19.70
2016,04,18,16,25,19.60
2016,04,18,16,26,19.50
2016,04,18,16,27,19.40
2016,04,18,16,28,19.30
2016,04,18,16,29,19.20
2016,04,18,16,30,19.20
2016,04,18,16,31,19.20
2016,04,18,16,32,19.20
2016,04,18,16,33,19.20
2016,04,18,16,34,19.20
2016,04,18,16,35,19.20
2016,04,18,16,36,19.30
2016,04,18,16,37,19.30
2016,04,18,16,38,19.40
2016,04,18,16,39,19.40
2016,04,18,16,40,19.40
2016,04,18,16,41,19.40
2016,04,18,16,42,19.30
2016,04,18,16,43,19.40
2016,04,18,16,44,19.40
2016,04,18,16,45,19.40
2016,04,18,16,46,19.50
2016,04,18,16,47,19.60
2016,04,18,16,48,19.70
2016,04,18,16,49,19.90
2016,04,18,16,50,20.00
2016,04,18,16,51,20.10
2016,04,18,16,52,20.10
2016,04,18,16,53,20.30
2016,04,18,16,54,20.40
2016,04,18,16,55,20.50
2016,04,18,16,56,20.50
2016,04,18,16,57,20.60
2016,04,18,16,58,20.70
2016,04,18,16,59,20.80
2016,04,18,17,00,21.00
2016,04,18,17,01,21.10
2016,04,18,17,02,21.20
2016,04,18,17,03,21.30
2016,04,18,17,04,21.30
2016,04,18,17,05,21.40
2016,04,18,17,06,21.40
2016,04,18,17,07,21.40
2016,04,18,17,08,21.40
2016,04,18,17,09,21.30
2016,04,18,17,10,21.30
2016,04,18,17,11,21.20
2016,04,18,17,12,21.10
2016,04,18,17,13,21.00
2016,04,18,17,14,21.00
2016,04,18,17,15,20.90
2016,04,18,17,16,20.90
2016,04,18,17,17,21.00
2016,04,18,17,18,21.10
2016,04,18,17,19,21.10